Time,TemperatureF,DewpointF,PressureIn,WindDirection,WindDirectionDegrees,WindSpeedMPH,WindSpeedGustMPH,Humidity,HourlyPrecipIn,Conditions,Clouds,dailyrainin,SoftwareType,DateUTC
2013-01-24 00:00:00,9.3,-8.2,30.12,North,0,0.0,0.0,44,0.00,,---,0.00,VWS V14.01,2013-01-24 05:00:00,
2013-01-24 00:01:00,9.3,-8.2,30.09,North,0,0.0,0.0,44,0.00,,---,0.00,VWS V14.01,2013-01-24 05:01:00,
2013-01-24 00:06:00,9.5,-8.0,30.09,North,0,0.0,0.0,44,0.00,,---,0.00,VWS V14.01,2013-01-24 05:06:00,
2013-01-24 00:11:00,10.0,-7.5,30.09,North,0,0.0,0.0,44,0.00,,---,0.00,VWS V14.01,2013-01-24 05:11:00,
2013-01-24 00:16:00,10.0,-7.5,30.09,North,0,0.0,0.0,44,0.00,,---,0.00,VWS V14.01,2013-01-24 05:16:00,
2013-01-24 00:21:00,10.0,-7.5,30.09,North,0,0.0,0.0,44,0.00,,---,0.00,VWS V14.01,2013-01-24 05:21:00,
2013-01-24 00:26:00,10.0,-7.5,30.09,North,0,0.0,0.0,44,0.00,,---,0.00,VWS V14.01,2013-01-24 05:26:00,
2013-01-24 00:31:00,10.0,-7.5,30.09,North,0,0.0,0.0,44,0.00,,---,0.00,VWS V14.01,2013-01-24 05:31:00,
2013-01-24 00:36:00,10.2,-7.3,30.09,North,0,0.0,0.0,44,0.00,,---,0.00,VWS V14.01,2013-01-24 05:36:00,
2013-01-24 00:41:00,10.4,-7.2,30.09,North,0,0.0,0.0,44,0.00,,---,0.00,VWS V14.01,2013-01-24 05:41:00,
2013-01-24 00:46:00,10.4,-7.2,30.09,North,0,0.0,0.0,44,0.00,,---,0.00,VWS V14.01,2013-01-24 05:46:00,
2013-01-24 00:51:00,10.2,-7.3,30.09,North,0,0.0,0.0,44,0.00,,---,0.00,VWS V14.01,2013-01-24 05:51:00,
2013-01-24 00:56:00,10.4,-7.2,30.09,North,0,0.0,0.0,44,0.00,,---,0.00,VWS V14.01,2013-01-24 05:56:00,
2013-01-24 01:01:00,10.2,-7.3,30.06,North,0,0.0,0.0,44,0.00,,---,0.00,VWS V14.01,2013-01-24 06:01:00,
2013-01-24 01:06:00,10.0,-7.5,30.06,North,0,0.0,0.0,44,0.00,,---,0.00,VWS V14.01,2013-01-24 06:06:00,
2013-01-24 01:11:00,9.7,-7.8,30.06,North,0,0.0,0.0,44,0.00,,---,0.00,VWS V14.01,2013-01-24 06:11:00,
2013-01-24 01:16:00,9.7,-7.8,30.06,North,0,0.0,0.0,44,0.00,,---,0.00,VWS V14.01,2013-01-24 06:16:00,
2013-01-24 01:21:00,10.0,-7.5,30.06,North,0,0.0,0.0,44,0.00,,---,0.00,VWS V14.01,2013-01-24 06:21:00,
2013-01-24 01:26:00,10.0,-7.5,30.06,North,0,0.0,0.0,44,0.00,,---,0.00,VWS V14.01,2013-01-24 06:26:00,
2013-01-24 01:31:00,10.0,-7.5,30.06,North,0,0.0,0.0,44,0.00,,---,0.00,VWS V14.01,2013-01-24 06:31:00,
2013-01-24 01:36:00,10.0,-7.5,30.06,North,0,0.0,0.0,44,0.00,,---,0.00,VWS V14.01,2013-01-24 06:36:00,
2013-01-24 01:41:00,10.0,-7.5,30.06,North,0,0.0,0.0,44,0.00,,---,0.00,VWS V14.01,2013-01-24 06:41:00,
2013-01-24 01:46:00,10.0,-7.5,30.06,North,0,0.0,0.0,44,0.00,,---,0.00,VWS V14.01,2013-01-24 06:46:00,
2013-01-24 01:51:00,10.0,-7.5,30.06,North,0,0.0,0.0,44,0.00,,---,0.00,VWS V14.01,2013-01-24 06:51:00,
2013-01-24 01:56:00,9.7,-7.8,30.06,North,0,0.0,0.0,44,0.00,,---,0.00,VWS V14.01,2013-01-24 06:56:00,
2013-01-24 02:01:00,9.3,-8.2,30.06,North,0,0.0,0.0,44,0.00,,---,0.00,VWS V14.01,2013-01-24 07:01:00,
2013-01-24 02:06:00,9.9,-7.7,30.06,North,0,0.0,0.0,44,0.00,,---,0.00,VWS V14.01,2013-01-24 07:06:00,
2013-01-24 02:11:00,10.2,-7.3,30.06,North,0,0.0,0.0,44,0.00,,---,0.00,VWS V14.01,2013-01-24 07:11:00,
2013-01-24 02:16:00,10.2,-7.3,30.06,North,0,0.0,0.0,44,0.00,,---,0.00,VWS V14.01,2013-01-24 07:16:00,
2013-01-24 02:21:00,10.0,-7.5,30.06,North,0,0.0,0.0,44,0.00,,---,0.00,VWS V14.01,2013-01-24 07:21:00,
2013-01-24 02:26:00,9.9,-7.7,30.06,North,0,0.0,0.0,44,0.00,,---,0.00,VWS V14.01,2013-01-24 07:26:00,
2013-01-24 02:31:00,10.0,-7.5,30.06,North,0,0.0,0.0,44,0.00,,---,0.00,VWS V14.01,2013-01-24 07:31:00,
2013-01-24 02:36:00,9.7,-7.8,30.06,North,0,0.0,0.0,44,0.00,,---,0.00,VWS V14.01,2013-01-24 07:36:00,
2013-01-24 02:41:00,9.3,-8.2,30.06,North,0,0.0,0.0,44,0.00,,---,0.00,VWS V14.01,2013-01-24 07:41:00,
2013-01-24 02:46:00,9.5,-8.0,30.06,North,0,0.0,0.0,44,0.00,,---,0.00,VWS V14.01,2013-01-24 07:46:00,
2013-01-24 02:51:00,9.5,-8.0,30.06,North,0,0.0,0.0,44,0.00,,---,0.00,VWS V14.01,2013-01-24 07:51:00,
2013-01-24 02:56:00,9.3,-8.2,30.06,North,0,0.0,0.0,44,0.00,,---,0.00,VWS V14.01,2013-01-24 07:56:00,
2013-01-24 03:01:00,9.1,-8.3,30.06,North,0,0.0,0.0,44,0.00,,---,0.00,VWS V14.01,2013-01-24 08:01:00,
2013-01-24 03:06:00,8.8,-8.7,30.06,North,0,0.0,0.0,44,0.00,,---,0.00,VWS V14.01,2013-01-24 08:06:00,
2013-01-24 03:11:00,8.8,-8.7,30.06,North,0,0.0,0.0,44,0.00,,---,0.00,VWS V14.01,2013-01-24 08:11:00,
2013-01-24 03:16:00,8.8,-8.7,30.06,North,0,0.0,0.0,44,0.00,,---,0.00,VWS V14.01,2013-01-24 08:16:00,
2013-01-24 03:21:00,8.8,-8.7,30.06,North,0,0.0,0.0,44,0.00,,---,0.00,VWS V14.01,2013-01-24 08:21:00,
2013-01-24 03:26:00,8.8,-8.7,30.06,North,0,0.0,0.0,44,0.00,,---,0.00,VWS V14.01,2013-01-24 08:26:00,
2013-01-24 03:31:00,9.1,-8.3,30.06,North,0,0.0,0.0,44,0.00,,---,0.00,VWS V14.01,2013-01-24 08:31:00,
2013-01-24 03:36:00,9.7,-7.8,30.06,North,0,0.0,0.0,44,0.00,,---,0.00,VWS V14.01,2013-01-24 08:36:00,
2013-01-24 03:41:00,10.2,-7.3,30.06,North,0,0.0,0.0,44,0.00,,---,0.00,VWS V14.01,2013-01-24 08:41:00,
2013-01-24 03:46:00,10.8,-6.8,30.06,North,0,0.0,0.0,44,0.00,,---,0.00,VWS V14.01,2013-01-24 08:46:00,
2013-01-24 03:51:00,11.1,-6.5,30.06,North,0,0.0,0.0,44,0.00,,---,0.00,VWS V14.01,2013-01-24 08:51:00,
2013-01-24 03:56:00,11.3,-6.4,30.06,North,0,0.0,0.0,44,0.00,,---,0.00,VWS V14.01,2013-01-24 08:56:00,
2013-01-24 04:01:00,11.3,-6.4,30.06,North,0,0.0,0.0,44,0.00,,---,0.00,VWS V14.01,2013-01-24 09:01:00,
2013-01-24 04:06:00,11.5,-6.2,30.06,North,0,0.0,0.0,44,0.00,,---,0.00,VWS V14.01,2013-01-24 09:06:00,
2013-01-24 04:11:00,11.7,-6.0,30.06,North,0,0.0,0.0,44,0.00,,---,0.00,VWS V14.01,2013-01-24 09:11:00,
2013-01-24 04:16:00,11.7,-6.0,30.06,North,0,0.0,0.0,44,0.00,,---,0.00,VWS V14.01,2013-01-24 09:16:00,
2013-01-24 04:21:00,11.5,-6.2,30.06,North,0,0.0,0.0,44,0.00,,---,0.00,VWS V14.01,2013-01-24 09:21:00,
2013-01-24 04:26:00,11.3,-6.4,30.06,North,0,0.0,0.0,44,0.00,,---,0.00,VWS V14.01,2013-01-24 09:26:00,
2013-01-24 04:31:00,11.3,-6.4,30.06,North,0,0.0,0.0,44,0.00,,---,0.00,VWS V14.01,2013-01-24 09:31:00,
2013-01-24 04:36:00,11.3,-6.4,30.06,North,0,0.0,0.0,44,0.00,,---,0.00,VWS V14.01,2013-01-24 09:36:00,
2013-01-24 04:41:00,11.1,-6.5,30.06,North,0,0.0,0.0,44,0.00,,---,0.00,VWS V14.01,2013-01-24 09:41:00,
2013-01-24 04:46:00,11.3,-6.4,30.06,North,0,0.0,0.0,44,0.00,,---,0.00,VWS V14.01,2013-01-24 09:46:00,
2013-01-24 04:51:00,11.1,-6.5,30.06,North,0,0.0,0.0,44,0.00,,---,0.00,VWS V14.01,2013-01-24 09:51:00,
2013-01-24 04:56:00,11.1,-6.5,30.06,North,0,0.0,0.0,44,0.00,,---,0.00,VWS V14.01,2013-01-24 09:56:00,
2013-01-24 05:01:00,11.1,-6.5,30.06,North,0,0.0,0.0,44,0.00,,---,0.00,VWS V14.01,2013-01-24 10:01:00,
2013-01-24 05:06:00,10.9,-6.7,30.06,North,0,0.0,0.0,44,0.00,,---,0.00,VWS V14.01,2013-01-24 10:06:00,
2013-01-24 05:11:00,10.9,-6.7,30.06,North,0,0.0,0.0,44,0.00,,---,0.00,VWS V14.01,2013-01-24 10:11:00,
2013-01-24 05:16:00,10.9,-6.7,30.06,North,0,0.0,0.0,44,0.00,,---,0.00,VWS V14.01,2013-01-24 10:16:00,
2013-01-24 05:21:00,10.9,-6.7,30.06,North,0,0.0,0.0,44,0.00,,---,0.00,VWS V14.01,2013-01-24 10:21:00,
2013-01-24 05:26:00,10.9,-6.7,30.06,North,0,0.0,0.0,44,0.00,,---,0.00,VWS V14.01,2013-01-24 10:26:00,
2013-01-24 05:31:00,10.9,-6.7,30.06,North,0,0.0,0.0,44,0.00,,---,0.00,VWS V14.01,2013-01-24 10:31:00,
2013-01-24 05:36:00,11.1,-6.5,30.06,North,0,0.0,0.0,44,0.00,,---,0.00,VWS V14.01,2013-01-24 10:36:00,
2013-01-24 05:41:00,11.1,-6.5,30.06,North,0,0.0,0.0,44,0.00,,---,0.00,VWS V14.01,2013-01-24 10:41:00,
2013-01-24 05:46:00,11.1,-6.5,30.09,North,0,0.0,0.0,44,0.00,,---,0.00,VWS V14.01,2013-01-24 10:46:00,
2013-01-24 05:51:00,11.1,-6.5,30.09,North,0,0.0,0.0,44,0.00,,---,0.00,VWS V14.01,2013-01-24 10:51:00,
2013-01-24 05:56:00,11.1,-6.5,30.09,North,0,0.0,0.0,44,0.00,,---,0.00,VWS V14.01,2013-01-24 10:56:00,
2013-01-24 06:01:00,11.3,-6.4,30.09,North,0,0.0,0.0,44,0.00,,---,0.00,VWS V14.01,2013-01-24 11:01:00,
2013-01-24 06:06:00,11.1,-6.5,30.09,North,0,0.0,0.0,44,0.00,,---,0.00,VWS V14.01,2013-01-24 11:06:00,
2013-01-24 06:11:00,10.9,-6.7,30.09,North,0,0.0,0.0,44,0.00,,---,0.00,VWS V14.01,2013-01-24 11:11:00,
2013-01-24 06:16:00,11.1,-6.5,30.09,North,0,0.0,0.0,44,0.00,,---,0.00,VWS V14.01,2013-01-24 11:16:00,
2013-01-24 06:21:00,11.1,-6.5,30.09,North,0,0.0,0.0,44,0.00,,---,0.00,VWS V14.01,2013-01-24 11:21:00,
2013-01-24 06:26:00,11.1,-6.5,30.09,North,0,0.0,0.0,44,0.00,,---,0.00,VWS V14.01,2013-01-24 11:26:00,
2013-01-24 06:31:00,11.1,-6.5,30.09,North,0,0.0,0.0,44,0.00,,---,0.00,VWS V14.01,2013-01-24 11:31:00,
2013-01-24 06:36:00,11.1,-6.5,30.09,North,0,0.0,0.0,44,0.00,,---,0.00,VWS V14.01,2013-01-24 11:36:00,
2013-01-24 06:41:00,11.1,-6.5,30.09,North,0,0.0,0.0,44,0.00,,---,0.00,VWS V14.01,2013-01-24 11:41:00,
2013-01-24 06:46:00,11.1,-6.5,30.09,North,0,0.0,0.0,44,0.00,,---,0.00,VWS V14.01,2013-01-24 11:46:00,
2013-01-24 06:51:00,10.9,-6.7,30.09,North,0,0.0,0.0,44,0.00,,---,0.00,VWS V14.01,2013-01-24 11:51:00,
2013-01-24 06:56:00,10.9,-6.7,30.09,North,0,0.0,0.0,44,0.00,,---,0.00,VWS V14.01,2013-01-24 11:56:00,
2013-01-24 07:01:00,10.8,-6.8,30.09,North,0,0.0,0.0,44,0.00,,---,0.00,VWS V14.01,2013-01-24 12:01:00,
2013-01-24 07:06:00,10.4,-7.2,30.09,North,0,0.0,0.0,44,0.00,,---,0.00,VWS V14.01,2013-01-24 12:06:00,
2013-01-24 07:11:00,10.4,-7.2,30.09,North,0,0.0,0.0,44,0.00,,---,0.00,VWS V14.01,2013-01-24 12:11:00,
2013-01-24 07:16:00,10.2,-7.3,30.09,North,0,0.0,0.0,44,0.00,,---,0.00,VWS V14.01,2013-01-24 12:16:00,
2013-01-24 07:21:00,10.0,-7.5,30.09,North,0,0.0,0.0,44,0.00,,---,0.00,VWS V14.01,2013-01-24 12:21:00,
2013-01-24 07:26:00,10.0,-7.5,30.09,North,0,0.0,0.0,44,0.00,,---,0.00,VWS V14.01,2013-01-24 12:26:00,
2013-01-24 07:31:00,10.0,-7.5,30.09,North,0,0.0,0.0,44,0.00,,---,0.00,VWS V14.01,2013-01-24 12:31:00,
2013-01-24 07:36:00,9.9,-7.7,30.09,North,0,0.0,0.0,44,0.00,,---,0.00,VWS V14.01,2013-01-24 12:36:00,
2013-01-24 07:41:00,9.7,-7.8,30.09,North,0,0.0,0.0,44,0.00,,---,0.00,VWS V14.01,2013-01-24 12:41:00,
2013-01-24 07:46:00,10.0,-7.5,30.09,North,0,0.0,0.0,44,0.00,,---,0.00,VWS V14.01,2013-01-24 12:46:00,
2013-01-24 07:51:00,10.2,-7.3,30.09,North,0,0.0,0.0,44,0.00,,---,0.00,VWS V14.01,2013-01-24 12:51:00,
2013-01-24 07:55:00,10.4,-7.2,30.09,North,0,0.0,0.0,44,0.00,,---,0.00,VWS V14.01,2013-01-24 12:55:00,
2013-01-24 08:00:00,10.4,-7.2,30.09,North,0,0.0,0.0,44,0.00,,---,0.00,VWS V14.01,2013-01-24 13:00:00,
2013-01-24 08:05:00,10.8,-6.8,30.09,North,0,0.0,0.0,44,0.00,,---,0.00,VWS V14.01,2013-01-24 13:05:00,
2013-01-24 08:10:00,11.3,-6.4,30.09,North,0,0.0,0.0,44,0.00,,---,0.00,VWS V14.01,2013-01-24 13:10:00,
2013-01-24 08:15:00,11.7,-6.0,30.12,North,0,0.0,0.0,44,0.00,,---,0.00,VWS V14.01,2013-01-24 13:15:00,
2013-01-24 08:20:00,12.0,-5.7,30.12,North,0,0.0,0.0,44,0.00,,---,0.00,VWS V14.01,2013-01-24 13:20:00,
2013-01-24 08:25:00,12.7,-5.0,30.12,North,0,0.0,0.0,44,0.00,,---,0.00,VWS V14.01,2013-01-24 13:25:00,
2013-01-24 08:30:00,13.1,-4.7,30.12,North,0,0.0,0.0,44,0.00,,---,0.00,VWS V14.01,2013-01-24 13:30:00,
2013-01-24 08:35:00,13.6,-4.2,30.12,North,0,0.0,0.0,44,0.00,,---,0.00,VWS V14.01,2013-01-24 13:35:00,
2013-01-24 08:40:00,13.6,-4.2,30.12,North,0,0.0,0.0,44,0.00,,---,0.00,VWS V14.01,2013-01-24 13:40:00,
2013-01-24 08:45:00,14.0,-3.9,30.12,North,0,0.0,0.0,44,0.00,,---,0.00,VWS V14.01,2013-01-24 13:45:00,
2013-01-24 08:50:00,14.4,-3.6,30.12,North,0,0.0,0.0,44,0.00,,---,0.00,VWS V14.01,2013-01-24 13:50:00,
2013-01-24 08:55:00,14.5,-3.4,30.12,North,0,0.0,0.0,44,0.00,,---,0.00,VWS V14.01,2013-01-24 13:55:00,
2013-01-24 09:00:00,14.9,-3.1,30.12,North,0,0.0,0.0,44,0.00,,---,0.00,VWS V14.01,2013-01-24 14:00:00,
2013-01-24 09:05:00,15.1,-2.9,30.12,North,0,0.0,0.0,44,0.00,,---,0.00,VWS V14.01,2013-01-24 14:05:00,
2013-01-24 09:10:00,15.1,-2.9,30.12,North,0,0.0,0.0,44,0.00,,---,0.00,VWS V14.01,2013-01-24 14:10:00,
2013-01-24 09:15:00,15.3,-2.7,30.12,North,0,0.0,0.0,44,0.00,,---,0.00,VWS V14.01,2013-01-24 14:15:00,
2013-01-24 09:20:00,15.3,-2.7,30.12,North,0,0.0,0.0,44,0.00,,---,0.00,VWS V14.01,2013-01-24 14:20:00,
2013-01-24 09:25:00,15.4,-2.6,30.12,North,0,0.0,0.0,44,0.00,,---,0.00,VWS V14.01,2013-01-24 14:25:00,
2013-01-24 09:30:00,15.6,-2.4,30.15,North,0,0.0,0.0,44,0.00,,---,0.00,VWS V14.01,2013-01-24 14:30:00,
2013-01-24 09:35:00,16.0,-2.1,30.15,North,0,0.0,0.0,44,0.00,,---,0.00,VWS V14.01,2013-01-24 14:35:00,
2013-01-24 09:40:00,16.5,-1.6,30.15,North,0,0.0,0.0,44,0.00,,---,0.00,VWS V14.01,2013-01-24 14:40:00,
2013-01-24 09:45:00,16.7,-1.4,30.15,North,0,0.0,0.0,44,0.00,,---,0.00,VWS V14.01,2013-01-24 14:45:00,
2013-01-24 09:50:00,16.9,-1.2,30.15,North,0,0.0,0.0,44,0.00,,---,0.00,VWS V14.01,2013-01-24 14:50:00,
2013-01-24 09:55:00,17.1,-1.1,30.15,North,0,0.0,0.0,44,0.00,,---,0.00,VWS V14.01,2013-01-24 14:55:00,
2013-01-24 10:00:00,17.8,-0.9,30.15,North,0,0.0,0.0,43,0.00,,---,0.00,VWS V14.01,2013-01-24 15:00:00,
2013-01-24 10:05:00,18.3,-0.4,30.15,North,0,0.0,0.0,43,0.00,,---,0.00,VWS V14.01,2013-01-24 15:05:00,
2013-01-24 10:10:00,18.5,-0.3,30.15,North,0,0.0,0.0,43,0.00,,---,0.00,VWS V14.01,2013-01-24 15:10:00,
2013-01-24 10:15:00,18.7,-0.1,30.15,North,0,0.0,0.0,43,0.00,,---,0.00,VWS V14.01,2013-01-24 15:15:00,
2013-01-24 10:20:00,19.0,0.2,30.15,North,0,0.0,0.0,43,0.00,,---,0.00,VWS V14.01,2013-01-24 15:20:00,
2013-01-24 10:25:00,19.0,0.2,30.15,North,0,0.0,0.0,43,0.00,,---,0.00,VWS V14.01,2013-01-24 15:25:00,
2013-01-24 10:30:00,19.6,0.7,30.15,North,0,0.0,0.0,43,0.00,,---,0.00,VWS V14.01,2013-01-24 15:30:00,
2013-01-24 10:35:00,19.4,0.6,30.15,North,0,0.0,0.0,43,0.00,,---,0.00,VWS V14.01,2013-01-24 15:35:00,
2013-01-24 10:40:00,19.4,0.6,30.15,North,0,0.0,0.0,43,0.00,,---,0.00,VWS V14.01,2013-01-24 15:40:00,
2013-01-24 10:45:00,19.9,1.1,30.18,North,0,0.0,0.0,43,0.00,,---,0.00,VWS V14.01,2013-01-24 15:45:00,
2013-01-24 10:50:00,19.9,1.1,30.18,North,0,0.0,0.0,43,0.00,,---,0.00,VWS V14.01,2013-01-24 15:50:00,
2013-01-24 10:55:00,20.1,1.2,30.18,North,0,0.0,0.0,43,0.00,,---,0.00,VWS V14.01,2013-01-24 15:55:00,
2013-01-24 11:00:00,20.7,1.7,30.15,North,0,0.0,0.0,43,0.00,,---,0.00,VWS V14.01,2013-01-24 16:00:00,
2013-01-24 11:05:00,21.0,2.0,30.15,North,0,0.0,0.0,43,0.00,,---,0.00,VWS V14.01,2013-01-24 16:05:00,
2013-01-24 11:10:00,20.7,1.7,30.15,North,0,0.0,0.0,43,0.00,,---,0.00,VWS V14.01,2013-01-24 16:10:00,
2013-01-24 11:15:00,20.7,1.7,30.15,North,0,0.0,0.0,43,0.00,,---,0.00,VWS V14.01,2013-01-24 16:15:00,
2013-01-24 11:20:00,20.8,1.9,30.15,North,0,0.0,0.0,43,0.00,,---,0.00,VWS V14.01,2013-01-24 16:20:00,
2013-01-24 11:25:00,21.0,2.0,30.15,North,0,0.0,0.0,43,0.00,,---,0.00,VWS V14.01,2013-01-24 16:25:00,
2013-01-24 11:30:00,21.4,1.9,30.15,North,0,0.0,0.0,42,0.00,,---,0.00,VWS V14.01,2013-01-24 16:30:00,
2013-01-24 11:35:00,21.6,2.0,30.15,North,0,0.0,0.0,42,0.00,,---,0.00,VWS V14.01,2013-01-24 16:35:00,
2013-01-24 11:40:00,21.7,2.2,30.15,North,0,0.0,0.0,42,0.00,,---,0.00,VWS V14.01,2013-01-24 16:40:00,
2013-01-24 11:45:00,21.7,2.2,30.15,North,0,0.0,0.0,42,0.00,,---,0.00,VWS V14.01,2013-01-24 16:45:00,
2013-01-24 11:50:00,21.9,2.4,30.15,North,0,0.0,0.0,42,0.00,,---,0.00,VWS V14.01,2013-01-24 16:50:00,
2013-01-24 11:55:00,21.9,2.4,30.15,North,0,0.0,0.0,42,0.00,,---,0.00,VWS V14.01,2013-01-24 16:55:00,
2013-01-24 12:00:00,22.1,2.5,30.15,North,0,0.0,0.0,42,0.00,,---,0.00,VWS V14.01,2013-01-24 17:00:00,
2013-01-24 12:05:00,22.8,3.2,30.15,North,0,0.0,0.0,42,0.00,,---,0.00,VWS V14.01,2013-01-24 17:05:00,
2013-01-24 12:10:00,22.8,3.2,30.15,North,0,0.0,0.0,42,0.00,,---,0.00,VWS V14.01,2013-01-24 17:10:00,
2013-01-24 12:15:00,23.2,3.5,30.15,North,0,0.0,0.0,42,0.00,,---,0.00,VWS V14.01,2013-01-24 17:15:00,
2013-01-24 12:20:00,22.8,3.2,30.15,North,0,0.0,0.0,42,0.00,,---,0.00,VWS V14.01,2013-01-24 17:20:00,
2013-01-24 12:25:00,23.5,3.8,30.15,North,0,0.0,0.0,42,0.00,,---,0.00,VWS V14.01,2013-01-24 17:25:00,
2013-01-24 12:30:00,23.7,4.0,30.15,North,0,0.0,0.0,42,0.00,,---,0.00,VWS V14.01,2013-01-24 17:30:00,
2013-01-24 12:35:00,24.3,4.5,30.15,North,0,0.0,0.0,42,0.00,,---,0.00,VWS V14.01,2013-01-24 17:35:00,
2013-01-24 12:40:00,24.6,4.8,30.15,North,0,0.0,0.0,42,0.00,,---,0.00,VWS V14.01,2013-01-24 17:40:00,
2013-01-24 12:45:00,24.8,5.0,30.15,North,0,0.0,0.0,42,0.00,,---,0.00,VWS V14.01,2013-01-24 17:45:00,
2013-01-24 12:50:00,25.2,5.3,30.15,North,0,0.0,0.0,42,0.00,,---,0.00,VWS V14.01,2013-01-24 17:50:00,
2013-01-24 12:55:00,25.3,5.5,30.15,North,0,0.0,0.0,42,0.00,,---,0.00,VWS V14.01,2013-01-24 17:55:00,
2013-01-24 13:00:00,25.0,5.1,30.15,North,0,0.0,0.0,42,0.00,,---,0.00,VWS V14.01,2013-01-24 18:00:00,
2013-01-24 13:05:00,24.8,5.0,30.15,North,0,0.0,0.0,42,0.00,,---,0.00,VWS V14.01,2013-01-24 18:05:00,
2013-01-24 13:10:00,25.2,5.3,30.15,North,0,0.0,0.0,42,0.00,,---,0.00,VWS V14.01,2013-01-24 18:10:00,
2013-01-24 13:15:00,25.0,5.1,30.15,North,0,0.0,0.0,42,0.00,,---,0.00,VWS V14.01,2013-01-24 18:15:00,
2013-01-24 13:20:00,25.3,5.5,30.15,North,0,0.0,0.0,42,0.00,,---,0.00,VWS V14.01,2013-01-24 18:20:00,
2013-01-24 13:25:00,25.7,5.8,30.15,North,0,0.0,0.0,42,0.00,,---,0.00,VWS V14.01,2013-01-24 18:25:00,
2013-01-24 13:30:00,24.1,4.3,30.15,North,0,0.0,0.0,42,0.00,,---,0.00,VWS V14.01,2013-01-24 18:30:00,
2013-01-24 13:35:00,23.7,4.0,30.15,North,0,0.0,0.0,42,0.00,,---,0.00,VWS V14.01,2013-01-24 18:35:00,
2013-01-24 13:40:00,24.3,4.5,30.15,North,0,0.0,0.0,42,0.00,,---,0.00,VWS V14.01,2013-01-24 18:40:00,
2013-01-24 13:45:00,24.4,4.7,30.18,North,0,0.0,0.0,42,0.00,,---,0.00,VWS V14.01,2013-01-24 18:45:00,
2013-01-24 13:50:00,24.6,4.8,30.18,North,0,0.0,0.0,42,0.00,,---,0.00,VWS V14.01,2013-01-24 18:50:00,
2013-01-24 13:55:00,23.9,4.2,30.18,North,0,0.0,0.0,42,0.00,,---,0.00,VWS V14.01,2013-01-24 18:55:00,
2013-01-24 14:00:00,23.5,3.8,30.18,North,0,0.0,0.0,42,0.00,,---,0.00,VWS V14.01,2013-01-24 19:00:00,
2013-01-24 14:05:00,23.4,3.7,30.18,North,0,0.0,0.0,42,0.00,,---,0.00,VWS V14.01,2013-01-24 19:05:00,
2013-01-24 14:10:00,23.5,3.8,30.18,North,0,0.0,0.0,42,0.00,,---,0.00,VWS V14.01,2013-01-24 19:10:00,
2013-01-24 14:15:00,23.9,4.2,30.18,North,0,0.0,0.0,42,0.00,,---,0.00,VWS V14.01,2013-01-24 19:15:00,
2013-01-24 14:20:00,24.1,4.3,30.18,North,0,0.0,0.0,42,0.00,,---,0.00,VWS V14.01,2013-01-24 19:20:00,
2013-01-24 14:25:00,24.4,4.7,30.18,North,0,0.0,0.0,42,0.00,,---,0.00,VWS V14.01,2013-01-24 19:25:00,
2013-01-24 14:30:00,24.3,4.5,30.18,North,0,0.0,0.0,42,0.00,,---,0.00,VWS V14.01,2013-01-24 19:30:00,
2013-01-24 14:35:00,24.3,4.5,30.18,North,0,0.0,0.0,42,0.00,,---,0.00,VWS V14.01,2013-01-24 19:35:00,
2013-01-24 14:40:00,24.3,4.5,30.18,North,0,0.0,0.0,42,0.00,,---,0.00,VWS V14.01,2013-01-24 19:40:00,
2013-01-24 14:45:00,24.3,4.5,30.18,North,0,0.0,0.0,42,0.00,,---,0.00,VWS V14.01,2013-01-24 19:45:00,
2013-01-24 14:50:00,23.9,4.2,30.18,North,0,0.0,0.0,42,0.00,,---,0.00,VWS V14.01,2013-01-24 19:50:00,
2013-01-24 14:55:00,23.5,3.8,30.18,North,0,0.0,0.0,42,0.00,,---,0.00,VWS V14.01,2013-01-24 19:55:00,
2013-01-24 15:00:00,23.4,3.7,30.18,North,0,0.0,0.0,42,0.00,,---,0.00,VWS V14.01,2013-01-24 20:00:00,
2013-01-24 15:05:00,23.4,3.7,30.18,North,0,0.0,0.0,42,0.00,,---,0.00,VWS V14.01,2013-01-24 20:05:00,
2013-01-24 15:10:00,23.4,3.7,30.18,North,0,0.0,0.0,42,0.00,,---,0.00,VWS V14.01,2013-01-24 20:10:00,
2013-01-24 15:15:00,23.0,3.3,30.21,North,0,0.0,0.0,42,0.00,,---,0.00,VWS V14.01,2013-01-24 20:15:00,
2013-01-24 15:20:00,22.8,3.2,30.21,North,0,0.0,0.0,42,0.00,,---,0.00,VWS V14.01,2013-01-24 20:20:00,
2013-01-24 15:25:00,23.0,3.3,30.21,North,0,0.0,0.0,42,0.00,,---,0.00,VWS V14.01,2013-01-24 20:25:00,
2013-01-24 15:30:00,22.8,3.2,30.21,North,0,0.0,0.0,42,0.00,,---,0.00,VWS V14.01,2013-01-24 20:30:00,
2013-01-24 15:35:00,22.6,3.0,30.21,North,0,0.0,0.0,42,0.00,,---,0.00,VWS V14.01,2013-01-24 20:35:00,
2013-01-24 15:40:00,22.5,2.8,30.21,North,0,0.0,0.0,42,0.00,,---,0.00,VWS V14.01,2013-01-24 20:40:00,
2013-01-24 15:45:00,22.5,2.8,30.21,North,0,0.0,0.0,42,0.00,,---,0.00,VWS V14.01,2013-01-24 20:45:00,
2013-01-24 15:50:00,22.3,2.7,30.21,North,0,0.0,0.0,42,0.00,,---,0.00,VWS V14.01,2013-01-24 20:50:00,
2013-01-24 15:55:00,22.1,2.5,30.21,North,0,0.0,0.0,42,0.00,,---,0.00,VWS V14.01,2013-01-24 20:55:00,
2013-01-24 16:00:00,21.9,2.4,30.24,North,0,0.0,0.0,42,0.00,,---,0.00,VWS V14.01,2013-01-24 21:00:00,
2013-01-24 16:05:00,21.9,2.4,30.24,North,0,0.0,0.0,42,0.00,,---,0.00,VWS V14.01,2013-01-24 21:05:00,
2013-01-24 16:10:00,21.9,2.4,30.24,North,0,0.0,0.0,42,0.00,,---,0.00,VWS V14.01,2013-01-24 21:10:00,
2013-01-24 16:15:00,21.9,2.4,30.24,North,0,0.0,0.0,42,0.00,,---,0.00,VWS V14.01,2013-01-24 21:15:00,
2013-01-24 16:20:00,21.7,2.2,30.24,North,0,0.0,0.0,42,0.00,,---,0.00,VWS V14.01,2013-01-24 21:20:00,
2013-01-24 16:25:00,21.7,2.2,30.24,North,0,0.0,0.0,42,0.00,,---,0.00,VWS V14.01,2013-01-24 21:25:00,
2013-01-24 16:30:00,21.4,1.9,30.24,North,0,0.0,0.0,42,0.00,,---,0.00,VWS V14.01,2013-01-24 21:30:00,
2013-01-24 16:35:00,21.2,2.2,30.24,North,0,0.0,0.0,43,0.00,,---,0.00,VWS V14.01,2013-01-24 21:35:00,
2013-01-24 16:40:00,21.2,2.2,30.24,North,0,0.0,0.0,43,0.00,,---,0.00,VWS V14.01,2013-01-24 21:40:00,
2013-01-24 16:45:00,21.0,2.0,30.24,North,0,0.0,0.0,43,0.00,,---,0.00,VWS V14.01,2013-01-24 21:45:00,
2013-01-24 16:50:00,20.8,1.9,30.24,North,0,0.0,0.0,43,0.00,,---,0.00,VWS V14.01,2013-01-24 21:50:00,
2013-01-24 16:55:00,20.5,1.5,30.24,North,0,0.0,0.0,43,0.00,,---,0.00,VWS V14.01,2013-01-24 21:55:00,
2013-01-24 17:00:00,20.3,1.4,30.24,North,0,0.0,0.0,43,0.00,,---,0.00,VWS V14.01,2013-01-24 22:00:00,
2013-01-24 17:05:00,20.1,1.2,30.24,North,0,0.0,0.0,43,0.00,,---,0.00,VWS V14.01,2013-01-24 22:05:00,
2013-01-24 17:10:00,19.9,1.1,30.24,North,0,0.0,0.0,43,0.00,,---,0.00,VWS V14.01,2013-01-24 22:10:00,
2013-01-24 17:15:00,20.1,1.2,30.24,North,0,0.0,0.0,43,0.00,,---,0.00,VWS V14.01,2013-01-24 22:15:00,
2013-01-24 17:20:00,20.1,1.2,30.24,North,0,0.0,0.0,43,0.00,,---,0.00,VWS V14.01,2013-01-24 22:20:00,
2013-01-24 17:25:00,19.9,1.1,30.24,North,0,0.0,0.0,43,0.00,,---,0.00,VWS V14.01,2013-01-24 22:25:00,
2013-01-24 17:30:00,19.8,0.9,30.27,North,0,0.0,0.0,43,0.00,,---,0.00,VWS V14.01,2013-01-24 22:30:00,
2013-01-24 17:35:00,19.8,0.9,30.27,North,0,0.0,0.0,43,0.00,,---,0.00,VWS V14.01,2013-01-24 22:35:00,
2013-01-24 17:40:00,19.6,0.7,30.27,North,0,0.0,0.0,43,0.00,,---,0.00,VWS V14.01,2013-01-24 22:40:00,
2013-01-24 17:45:00,19.4,0.6,30.27,North,0,0.0,0.0,43,0.00,,---,0.00,VWS V14.01,2013-01-24 22:45:00,
2013-01-24 17:50:00,19.2,0.4,30.27,North,0,0.0,0.0,43,0.00,,---,0.00,VWS V14.01,2013-01-24 22:50:00,
2013-01-24 17:55:00,19.2,0.4,30.27,North,0,0.0,0.0,43,0.00,,---,0.00,VWS V14.01,2013-01-24 22:55:00,
2013-01-24 18:00:00,19.2,0.4,30.27,North,0,0.0,0.0,43,0.00,,---,0.00,VWS V14.01,2013-01-24 23:00:00,
2013-01-24 18:05:00,18.7,-0.1,30.27,North,0,0.0,0.0,43,0.00,,---,0.00,VWS V14.01,2013-01-24 23:05:00,
2013-01-24 18:10:00,18.3,-0.4,30.27,North,0,0.0,0.0,43,0.00,,---,0.00,VWS V14.01,2013-01-24 23:10:00,
2013-01-24 18:15:00,18.5,-0.3,30.30,North,0,0.0,0.0,43,0.00,,---,0.00,VWS V14.01,2013-01-24 23:15:00,
2013-01-24 18:20:00,18.5,-0.3,30.30,North,0,0.0,0.0,43,0.00,,---,0.00,VWS V14.01,2013-01-24 23:20:00,
2013-01-24 18:25:00,18.3,-0.4,30.30,North,0,0.0,0.0,43,0.00,,---,0.00,VWS V14.01,2013-01-24 23:25:00,
2013-01-24 18:30:00,18.1,-0.6,30.30,North,0,0.0,0.0,43,0.00,,---,0.00,VWS V14.01,2013-01-24 23:30:00,
2013-01-24 18:35:00,17.8,-0.9,30.30,North,0,0.0,0.0,43,0.00,,---,0.00,VWS V14.01,2013-01-24 23:35:00,
2013-01-24 18:40:00,17.4,-0.8,30.30,North,0,0.0,0.0,44,0.00,,---,0.00,VWS V14.01,2013-01-24 23:40:00,
2013-01-24 18:45:00,17.2,-0.9,30.30,North,0,0.0,0.0,44,0.00,,---,0.00,VWS V14.01,2013-01-24 23:45:00,
2013-01-24 18:50:00,17.4,-0.8,30.30,North,0,0.0,0.0,44,0.00,,---,0.00,VWS V14.01,2013-01-24 23:50:00,
2013-01-24 18:55:00,17.8,-0.9,30.30,North,0,0.0,0.0,43,0.00,,---,0.00,VWS V14.01,2013-01-24 23:55:00,
2013-01-24 19:00:00,17.8,-0.9,30.30,North,0,0.0,0.0,43,0.00,,---,0.00,VWS V14.01,2013-01-25 00:00:00,
2013-01-24 19:05:00,17.6,-0.6,30.30,North,0,0.0,0.0,44,0.00,,---,0.00,VWS V14.01,2013-01-25 00:05:00,
2013-01-24 19:10:00,17.6,-0.6,30.30,North,0,0.0,0.0,44,0.00,,---,0.00,VWS V14.01,2013-01-25 00:10:00,
2013-01-24 19:15:00,17.8,-0.9,30.30,North,0,0.0,0.0,43,0.00,,---,0.00,VWS V14.01,2013-01-25 00:15:00,
2013-01-24 19:20:00,17.6,-0.6,30.30,North,0,0.0,0.0,44,0.00,,---,0.00,VWS V14.01,2013-01-25 00:20:00,
2013-01-24 19:25:00,17.6,-0.6,30.30,North,0,0.0,0.0,44,0.00,,---,0.00,VWS V14.01,2013-01-25 00:25:00,
2013-01-24 19:30:00,18.1,-0.6,30.30,North,0,0.0,0.0,43,0.00,,---,0.00,VWS V14.01,2013-01-25 00:30:00,
2013-01-24 19:35:00,18.1,-0.6,30.30,North,0,0.0,0.0,43,0.00,,---,0.00,VWS V14.01,2013-01-25 00:35:00,
2013-01-24 19:40:00,18.1,-0.6,30.30,North,0,0.0,0.0,43,0.00,,---,0.00,VWS V14.01,2013-01-25 00:40:00,
2013-01-24 19:45:00,18.1,-0.6,30.30,North,0,0.0,0.0,43,0.00,,---,0.00,VWS V14.01,2013-01-25 00:45:00,
2013-01-24 19:50:00,18.3,-0.4,30.30,North,0,0.0,0.0,43,0.00,,---,0.00,VWS V14.01,2013-01-25 00:50:00,
2013-01-24 19:55:00,18.1,-0.6,30.30,North,0,0.0,0.0,43,0.00,,---,0.00,VWS V14.01,2013-01-25 00:55:00,
2013-01-24 20:00:00,18.0,-0.8,30.30,North,0,0.0,0.0,43,0.00,,---,0.00,VWS V14.01,2013-01-25 01:00:00,
2013-01-24 20:05:00,17.8,-0.9,30.30,North,0,0.0,0.0,43,0.00,,---,0.00,VWS V14.01,2013-01-25 01:05:00,
2013-01-24 20:10:00,17.8,-0.9,30.30,North,0,0.0,0.0,43,0.00,,---,0.00,VWS V14.01,2013-01-25 01:10:00,
2013-01-24 20:15:00,18.1,-0.6,30.30,North,0,0.0,0.0,43,0.00,,---,0.00,VWS V14.01,2013-01-25 01:15:00,
2013-01-24 20:20:00,17.8,-0.9,30.30,North,0,0.0,0.0,43,0.00,,---,0.00,VWS V14.01,2013-01-25 01:20:00,
2013-01-24 20:25:00,17.8,-0.9,30.30,North,0,0.0,0.0,43,0.00,,---,0.00,VWS V14.01,2013-01-25 01:25:00,
2013-01-24 20:30:00,17.6,-0.6,30.30,North,0,0.0,0.0,44,0.00,,---,0.00,VWS V14.01,2013-01-25 01:30:00,
2013-01-24 20:35:00,17.6,-0.6,30.33,North,0,0.0,0.0,44,0.00,,---,0.00,VWS V14.01,2013-01-25 01:35:00,
2013-01-24 20:40:00,17.4,-0.8,30.33,North,0,0.0,0.0,44,0.00,,---,0.00,VWS V14.01,2013-01-25 01:40:00,
2013-01-24 20:45:00,17.4,-0.8,30.33,North,0,0.0,0.0,44,0.00,,---,0.00,VWS V14.01,2013-01-25 01:45:00,
2013-01-24 20:50:00,17.4,-0.8,30.33,North,0,0.0,0.0,44,0.00,,---,0.00,VWS V14.01,2013-01-25 01:50:00,
2013-01-24 20:55:00,17.4,-0.8,30.33,North,0,0.0,0.0,44,0.00,,---,0.00,VWS V14.01,2013-01-25 01:55:00,
2013-01-24 21:00:00,17.4,-0.8,30.30,North,0,0.0,0.0,44,0.00,,---,0.00,VWS V14.01,2013-01-25 02:00:00,
2013-01-24 21:05:00,17.4,-0.8,30.30,North,0,0.0,0.0,44,0.00,,---,0.00,VWS V14.01,2013-01-25 02:05:00,
2013-01-24 21:10:00,17.4,-0.8,30.30,North,0,0.0,0.0,44,0.00,,---,0.00,VWS V14.01,2013-01-25 02:10:00,
2013-01-24 21:15:00,17.1,-1.1,30.30,North,0,0.0,0.0,44,0.00,,---,0.00,VWS V14.01,2013-01-25 02:15:00,
2013-01-24 21:20:00,17.1,-1.1,30.30,North,0,0.0,0.0,44,0.00,,---,0.00,VWS V14.01,2013-01-25 02:20:00,
2013-01-24 21:25:00,17.2,-0.9,30.30,North,0,0.0,0.0,44,0.00,,---,0.00,VWS V14.01,2013-01-25 02:25:00,
2013-01-24 21:30:00,17.4,-0.8,30.30,North,0,0.0,0.0,44,0.00,,---,0.00,VWS V14.01,2013-01-25 02:30:00,
2013-01-24 21:35:00,17.2,-0.9,30.30,North,0,0.0,0.0,44,0.00,,---,0.00,VWS V14.01,2013-01-25 02:35:00,
2013-01-24 21:40:00,17.1,-1.1,30.30,North,0,0.0,0.0,44,0.00,,---,0.00,VWS V14.01,2013-01-25 02:40:00,
2013-01-24 21:45:00,17.1,-1.1,30.30,North,0,0.0,0.0,44,0.00,,---,0.00,VWS V14.01,2013-01-25 02:45:00,
2013-01-24 21:50:00,17.1,-1.1,30.30,North,0,0.0,0.0,44,0.00,,---,0.00,VWS V14.01,2013-01-25 02:50:00,
2013-01-24 21:55:00,16.9,-1.2,30.30,North,0,0.0,0.0,44,0.00,,---,0.00,VWS V14.01,2013-01-25 02:55:00,
2013-01-24 22:00:00,16.5,-1.6,30.30,North,0,0.0,0.0,44,0.00,,---,0.00,VWS V14.01,2013-01-25 03:00:00,
2013-01-24 22:05:00,16.0,-2.1,30.30,North,0,0.0,0.0,44,0.00,,---,0.00,VWS V14.01,2013-01-25 03:05:00,
2013-01-24 22:10:00,16.3,-1.7,30.30,North,0,0.0,0.0,44,0.00,,---,0.00,VWS V14.01,2013-01-25 03:10:00,
2013-01-24 22:15:00,16.3,-1.7,30.30,North,0,0.0,0.0,44,0.00,,---,0.00,VWS V14.01,2013-01-25 03:15:00,
2013-01-24 22:20:00,16.3,-1.7,30.30,North,0,0.0,0.0,44,0.00,,---,0.00,VWS V14.01,2013-01-25 03:20:00,
2013-01-24 22:25:00,16.2,-1.9,30.30,North,0,0.0,0.0,44,0.00,,---,0.00,VWS V14.01,2013-01-25 03:25:00,
2013-01-24 22:30:00,16.2,-1.9,30.33,North,0,0.0,0.0,44,0.00,,---,0.00,VWS V14.01,2013-01-25 03:30:00,
2013-01-24 22:35:00,16.2,-1.9,30.33,North,0,0.0,0.0,44,0.00,,---,0.00,VWS V14.01,2013-01-25 03:35:00,
2013-01-24 22:40:00,16.0,-2.1,30.33,North,0,0.0,0.0,44,0.00,,---,0.00,VWS V14.01,2013-01-25 03:40:00,
2013-01-24 22:45:00,16.0,-2.1,30.33,North,0,0.0,0.0,44,0.00,,---,0.00,VWS V14.01,2013-01-25 03:45:00,
2013-01-24 22:50:00,16.2,-1.9,30.33,North,0,0.0,0.0,44,0.00,,---,0.00,VWS V14.01,2013-01-25 03:50:00,
2013-01-24 22:55:00,16.0,-2.1,30.33,North,0,0.0,0.0,44,0.00,,---,0.00,VWS V14.01,2013-01-25 03:55:00,
2013-01-24 23:00:00,16.2,-1.9,30.33,North,0,0.0,0.0,44,0.00,,---,0.00,VWS V14.01,2013-01-25 04:00:00,
2013-01-24 23:05:00,16.2,-1.9,30.33,North,0,0.0,0.0,44,0.00,,---,0.00,VWS V14.01,2013-01-25 04:05:00,
2013-01-24 23:10:00,16.0,-2.1,30.33,North,0,0.0,0.0,44,0.00,,---,0.00,VWS V14.01,2013-01-25 04:10:00,
2013-01-24 23:15:00,16.0,-2.1,30.30,North,0,0.0,0.0,44,0.00,,---,0.00,VWS V14.01,2013-01-25 04:15:00,
2013-01-24 23:20:00,15.8,-2.2,30.30,North,0,0.0,0.0,44,0.00,,---,0.00,VWS V14.01,2013-01-25 04:20:00,
2013-01-24 23:25:00,15.8,-2.2,30.30,North,0,0.0,0.0,44,0.00,,---,0.00,VWS V14.01,2013-01-25 04:25:00,
2013-01-24 23:30:00,15.4,-2.6,30.30,North,0,0.0,0.0,44,0.00,,---,0.00,VWS V14.01,2013-01-25 04:30:00,
2013-01-24 23:35:00,15.1,-2.9,30.33,North,0,0.0,0.0,44,0.00,,---,0.00,VWS V14.01,2013-01-25 04:35:00,
2013-01-24 23:40:00,15.1,-2.9,30.33,North,0,0.0,0.0,44,0.00,,---,0.00,VWS V14.01,2013-01-25 04:40:00,
2013-01-24 23:45:00,15.3,-2.7,30.33,North,0,0.0,0.0,44,0.00,,---,0.00,VWS V14.01,2013-01-25 04:45:00,
2013-01-24 23:50:00,15.1,-2.9,30.33,North,0,0.0,0.0,44,0.00,,---,0.00,VWS V14.01,2013-01-25 04:50:00,
2013-01-24 23:55:00,14.9,-3.1,30.33,North,0,0.0,0.0,44,0.00,,---,0.00,VWS V14.01,2013-01-25 04:55:00,